Погода в Жаслыке

Погода в Жаслыке : погода сейчас, прогноз погоды и архив. Всё, что Вы хотите узнать о погоде в Жаслыке!

Хотите узнать прогноз погоды в Жаслыке? Тогда Вам сюда: Погода в Жаслыке

Поиск расширенной информации на нашем сайте:

Другие новости

Новости СМИ2

Главная страница сайта

Новости сайта

02.10.2013

Напоминаем, что на нашем новом сайте вы можете получить высокодетализированные прогнозы погоды по пунктам России, СНГ и мира (включающие важные для авиации метеовеличины, такие как направление и скорость ветра, видимость, явления погоды, количество и форма облачности, нижняя и верхняя граница облачности), а также ознакомиться с разнообразными материалами по авиационной метеорологии и подборкой полезных ссылок на эту тему.

Сайт Метеоцентр.Азия посвящён разработке технологий оптимизации авиаметеорологического обслуживания, включая проектирование и перспективное создание нескольких автоматизированных авиаметеорологических систем:
- система выпуска высокодетальных прогностических карт явлений погоды для нижнего воздушного пространства по России и ближнему зарубежью;
- система верификации прогнозов TAF (выпускаемых синоптиками официальных АМСГ РФ и ближнего зарубежья) и AUTOTAF (выпускаемых сайтом Метеоцентр.Азия) - выявление ошибок, онлайн-сопоставление с фактической погодой METAR, автоматическое внесение коррективов в прогнозы при резком отклонении фактической погоды от прогноза, подсчёт оправдываемости прогнозов по элементам и в целом;
- система обработки, анализа и отображения авиаметеорологической информации для применения провайдерами метеорологической информации.

Рекомендуем: Голубая бухта частная гостиница магнолия restsochi.com.

Погода в Жаслыке - сегодня

Время (UTC), дата Ветер
(°,м/с) 
Видим.   Явления Облачность Т
(°С)
Тd
(°С)
f(%) Тe
(°С)
Pmin
(гПа)
dP
(гПа)
Po
(мм)
O2
(г/м3)
Тmin Tmax R s Состояние
почвы
03 20.01.17 320 (СЗ) 20000 м    10/10 600 м 
[Sc]
-7.8 -13.3 65 -9  1029.1  759  316        мокрый или
старый снег
50-90% 
09 20.01.17 310 (СЗ) 20000 м  в посл. час снег  10/10 600 м 
[Sc]
-7.2 -13.6 60 -7  1028.7  -0.6  759  315           
12 20.01.17 350 (С) 20000 м    3/0 средняя 
[Ac trans]
-7.7 -15.5 54 -12  1028.4  -0.3  759  316           
18 20.01.17 350 (С) 20000 м    ясно 
-14.9 -21.9 55 -15  1028.4  -0.1  758  325    -7.2  0.4     
21 20.01.17 тихо ()   20000 м    ясно 
-16.4 -22.4 60 -16  1028.1  -0.4  758  327           
00 21.01.17 тихо ()   20000 м    3/0 верхняя 
[Ci sp]
-16.6 -22.5 60 -17  1028.2  0.1  758  327           
06 21.01.17 230 (ЮЗ) 4000 м  дымка{туман}  3/0 верхняя 
[Ci sp]
-13.3 -20.4 55 -13  1025.9  -1.1  757  322  -17         
09 21.01.17 020 (С) 20000 м    ясно 
-6.8 -15.9 48 -6  1024.6  -0.7  756  314           
12 21.01.17 210 (ЮЗ) 20000 м    ясно 
-4.6 -14.4 46 -4  1023.3  -1.1  755  311           
15 21.01.17 180 (Ю) 20000 м    ясно 
-9 -17 52 -9  1023.4  -0.3  755  316    -4.6       
18 21.01.17 170 (Ю) 20000 м    ясно 
-8 -16 53 -11  1023.7  0.4  755  315    -4.6       
21 21.01.17 180 (Ю) 20000 м    4/0 средняя 
[Ac trans]
-9 -16.3 55 -15  1022.7  -1.1  754  316           
00 22.01.17 160 (Ю) 20000 м    10/0 
[Sc]
-5 -13.4 52 -9  1019.8  -2.7  752  310           
03 22.01.17 180 (Ю) 13  20000 м    10/10 600 м 
[Sc]
-4.6 -12.7 53 -11  1018.5  -1.1  752  309        мокрый или
старый снег
50-90% 
06 22.01.17 200 (Ю) 13  20000 м    9/0 средняя 
[Ac trans]
-2 -10.5 52 -8  1018.2  -0.1  752  306  -9         
09 22.01.17 230 (ЮЗ) 20  20000 м    9/0 средняя 
[Ac trans]
+1.4 -8.4 48 -5  1016.6  -1.6  750  302           
12 22.01.17 220 (ЮЗ) 20  20000 м  в посл. час морось{снег}  10/10 600 м 
[Sc]
+1 -4.3 68 -6  1015  -1.6  749  301           
21 22.01.17 250 (З) 12  20000 м    ясно 
-9 -13.4 70 -17  1025.1  3.2  756  316           
00 23.01.17 260 (З) 10  20000 м    ясно 
-10.9 -16.2 65 -18  1025.8  0.7  757  319           
03 23.01.17 250 (З) 20000 м    ясно 
-10.6 -15.9 65 -18  1027.8  758  319        мокрый или
старый снег
50-90% 
06 23.01.17 230 (ЮЗ) 10  20000 м    9/0 верхняя 
[Ci sp]
-8 -14.8 58 -15  1027.2  -0.5  758  316  -10.9         
09 23.01.17 220 (ЮЗ) 15  20000 м    9/9 600 м 
[Sc]
-2.4 -11.6 49 -9  1025.1  -1.7  757  309           
12 23.01.17 260 (З) 15{28}  2000 м  слаб. снег  10/10 600 м 
[Ns]
-2 -5.9 75 -9  1024.2  -0.9  756  307           
18 23.01.17 320 (СЗ) 20000 м  {снег}  9/9 600 м 
[Sc]
-5.2 -8.6 77 -10  1026.7  1.8  758  312    -2     
21 23.01.17 300 (СЗ) 20000 м    10/10 600 м 
[Sc]
-6.4 -10.5 73 -10  1028.6  1.9  759  314           
Время (UTC), дата Ветер
(°,м/с) 
Видим.   Явления Облачность Т
(°С)
Тd
(°С)
f(%) Тe
(°С)
Pmin
(гПа)
dP
(гПа)
Po
(мм)
O2
(г/м3)
Тmin Tmax R s Состояние
почвы

Для получения пояснительной информации подведите курсор к названию столбца.

ПОГОДА в Жаслыке - архив

Всё, что Вы хотите узнать о погоде в Жаслыке - удобно и подробно!

Выберите нужную дату (начиная с 1 января 2015* года) и нажмите кнопку "Найти".
Будут отображены архивные сводки погоды по пункту Жаслык, начиная с указанной даты.


Отображать данные в формате CSV (для использования в таблицах Excel)


Внимание! Наш архив погоды предназначен исключительно для личного некоммерческого использования в познавательных целях. Если Вам необходимы официальные справки о состоянии погоды (для производственных, юридических, коммерческих и т.п. целей), обращайтесь в органы Росгидромета.

*Примечание: данная дата относится к архиву по метеостанциям СССР (Россия, СНГ, Балтия).
Архив по метеостанциям Зарубежной Европы и Азии (кроме Китая) хранится 10 дней, по другим регионам земного шара (Китай, Африка, Америка, Австралия, Океания) - 1 день.

Жаслык - район местоположения метеостанции


Название, широта, долгота, высота метеостанции:
Жаслык 43.9°ш. 57.5°д. 128 м над ур. моря [Узбекистан]

Дополнительная информация

В oтличие oт бoльшинства пoгoдных сайтoв мы публикуем пoдрoбную метеoинфoрмацию в детальнoм прoфессиoнальнoм фoрмате.

Характеристики температуры и влажнoсти вoздуха измеряются на высoте 2 м в тени вдали oт зданий и деревьев.
Скoрoсть ветра измеряется на высoте 10 м (на урoвне рoста челoвека скoрoсть ветра ниже в 1.5-2 раза). Если метеoстанция нахoдится в гoрoде или в лесу, тo скoрoсть ветра занижена на 2-4 м/с пo сравнению с oткрытым местoм. Скoрoсть ветра над акватoриями крупных рек и oзёр, а также на вершинах хoлмoв на 2-5 м/с выше, чем в oбычных услoвиях.
Атмoсфернoе давление в разных тoчках местнoсти мoжет значительнo oтличаться oт давления на метеoстанции, в зависимoсти oт услoвий рельефа (при пoдъёме на 10 м давление пoнижается примернo на 1 мм рт.ст.).